Time,TemperatureF,DewpointF,PressureIn,WindDirection,WindDirectionDegrees,WindSpeedMPH,WindSpeedGustMPH,Humidity,HourlyPrecipIn,Conditions,Clouds,dailyrainin,SoftwareType,DateUTC
2013-09-16 00:00:00,67.3,58.1,30.11,South,182,0.0,7.0,72,0.00,,BKN250,0.00,VWS V14.01,2013-09-16 04:00:00,
2013-09-16 00:08:00,67.3,58.5,30.11,SSW,198,0.0,7.0,73,0.00,,BKN250,0.00,VWS V14.01,2013-09-16 04:08:00,
2013-09-16 00:10:00,67.2,58.5,30.11,SW,229,3.0,4.0,73,0.00,,BKN250,0.00,VWS V14.01,2013-09-16 04:10:00,
2013-09-16 00:20:00,67.0,58.3,30.11,SSW,193,3.0,7.0,73,0.00,,BKN250,0.00,VWS V14.01,2013-09-16 04:20:00,
2013-09-16 00:25:00,67.0,58.3,30.11,SW,225,3.0,3.0,73,0.00,,BKN250,0.00,VWS V14.01,2013-09-16 04:25:00,
2013-09-16 00:30:00,67.0,57.9,30.11,SW,221,1.0,5.0,72,0.00,,BKN250,0.00,VWS V14.01,2013-09-16 04:30:00,
2013-09-16 00:35:00,66.9,57.8,30.11,SW,218,1.0,6.0,72,0.00,,BKN250,0.00,VWS V14.01,2013-09-16 04:35:00,
2013-09-16 00:45:00,66.9,57.8,30.11,SSW,194,1.0,6.0,72,0.00,,BKN250,0.00,VWS V14.01,2013-09-16 04:45:00,
2013-09-16 00:50:00,66.9,57.8,30.11,South,190,2.0,6.0,72,0.00,,BKN250,0.00,VWS V14.01,2013-09-16 04:50:00,
2013-09-16 00:55:00,66.8,57.7,30.11,SSW,192,2.0,3.0,72,0.00,,BKN250,0.00,VWS V14.01,2013-09-16 04:55:00,
2013-09-16 01:00:00,66.8,57.7,30.11,SSW,196,1.0,3.0,72,0.00,,BKN250,0.00,VWS V14.01,2013-09-16 05:00:00,
2013-09-16 01:08:00,66.9,57.8,30.11,South,178,0.0,3.0,72,0.00,,BKN250,0.00,VWS V14.01,2013-09-16 05:08:00,
2013-09-16 01:15:00,66.8,57.7,30.11,South,175,3.0,3.0,72,0.00,,BKN250,0.00,VWS V14.01,2013-09-16 05:15:00,
2013-09-16 01:20:00,66.7,57.6,30.11,SSW,192,0.0,6.0,72,0.00,,BKN250,0.00,VWS V14.01,2013-09-16 05:20:00,
2013-09-16 01:27:00,66.7,57.2,30.11,South,187,3.0,6.0,71,0.00,,BKN250,0.00,VWS V14.01,2013-09-16 05:27:00,
2013-09-16 01:35:00,66.7,57.6,30.11,South,177,5.0,6.0,72,0.00,,BKN250,0.00,VWS V14.01,2013-09-16 05:35:00,
2013-09-16 01:40:00,66.7,57.2,30.10,South,183,1.0,8.0,71,0.00,,BKN250,0.00,VWS V14.01,2013-09-16 05:40:00,
2013-09-16 01:45:00,66.7,57.6,30.10,South,181,2.0,6.0,72,0.00,,BKN250,0.00,VWS V14.01,2013-09-16 05:45:00,
2013-09-16 01:50:00,66.6,57.1,30.10,SW,218,1.0,7.0,71,0.00,,BKN250,0.00,VWS V14.01,2013-09-16 05:50:00,
2013-09-16 02:00:00,66.5,57.4,30.10,SSW,194,1.0,3.0,72,0.00,,SCT250,0.00,VWS V14.01,2013-09-16 06:00:00,
2013-09-16 02:08:00,66.4,57.3,30.10,South,173,2.0,5.0,72,0.00,,SCT250,0.00,VWS V14.01,2013-09-16 06:08:00,
2013-09-16 02:15:00,66.4,57.3,30.10,SSW,197,1.0,5.0,72,0.00,,SCT250,0.00,VWS V14.01,2013-09-16 06:15:00,
2013-09-16 02:20:00,66.4,57.3,30.10,SSW,193,2.0,5.0,72,0.00,,SCT250,0.00,VWS V14.01,2013-09-16 06:20:00,
2013-09-16 02:25:00,66.2,57.5,30.10,SSW,210,4.0,6.0,73,0.00,,SCT250,0.00,VWS V14.01,2013-09-16 06:25:00,
2013-09-16 02:30:00,66.2,57.5,30.09,South,175,6.0,7.0,73,0.00,,SCT250,0.00,VWS V14.01,2013-09-16 06:30:00,
2013-09-16 02:35:00,66.1,57.4,30.09,SSW,210,1.0,7.0,73,0.00,,SCT250,0.00,VWS V14.01,2013-09-16 06:35:00,
2013-09-16 02:40:00,66.0,57.3,30.09,SW,229,1.0,8.0,73,0.00,,SCT250,0.00,VWS V14.01,2013-09-16 06:40:00,
2013-09-16 02:45:00,65.9,57.6,30.09,SW,223,3.0,6.0,75,0.00,,SCT250,0.00,VWS V14.01,2013-09-16 06:45:00,
2013-09-16 02:50:00,66.0,57.7,30.09,South,169,1.0,5.0,75,0.00,,SCT250,0.00,VWS V14.01,2013-09-16 06:50:00,
2013-09-16 02:55:00,65.9,57.6,30.09,SSW,196,0.0,8.0,75,0.00,,SCT250,0.00,VWS V14.01,2013-09-16 06:55:00,
2013-09-16 03:00:00,65.9,57.6,30.09,South,186,0.0,5.0,75,0.00,,BKN250,0.00,VWS V14.01,2013-09-16 07:00:00,
2013-09-16 03:08:00,66.0,57.7,30.09,South,183,2.0,7.0,75,0.00,,BKN250,0.00,VWS V14.01,2013-09-16 07:08:00,
2013-09-16 03:15:00,66.0,57.7,30.08,SSW,194,1.0,7.0,75,0.00,,BKN250,0.00,VWS V14.01,2013-09-16 07:15:00,
2013-09-16 03:20:00,65.9,57.6,30.08,SSW,194,2.0,7.0,75,0.00,,BKN250,0.00,VWS V14.01,2013-09-16 07:20:00,
2013-09-16 03:25:00,65.8,57.5,30.08,South,190,2.0,3.0,75,0.00,,BKN250,0.00,VWS V14.01,2013-09-16 07:25:00,
2013-09-16 03:30:00,65.8,57.5,30.08,South,188,2.0,5.0,75,0.00,,BKN250,0.00,VWS V14.01,2013-09-16 07:30:00,
2013-09-16 03:35:00,65.8,57.9,30.08,SSW,206,1.0,5.0,76,0.00,,BKN250,0.00,VWS V14.01,2013-09-16 07:35:00,
2013-09-16 03:40:00,65.7,57.8,30.08,South,186,0.0,4.0,76,0.00,,BKN250,0.00,VWS V14.01,2013-09-16 07:40:00,
2013-09-16 03:45:00,65.7,58.2,30.08,SSE,164,1.0,5.0,77,0.00,,BKN250,0.00,VWS V14.01,2013-09-16 07:45:00,
2013-09-16 03:55:00,65.5,58.0,30.08,SW,216,0.0,3.0,77,0.00,,BKN250,0.00,VWS V14.01,2013-09-16 07:55:00,
2013-09-16 04:00:00,65.3,57.8,30.08,SSW,193,0.0,3.0,77,0.00,,BKN080,0.00,VWS V14.01,2013-09-16 08:00:00,
2013-09-16 04:08:00,65.3,58.2,30.08,SSW,195,1.0,7.0,78,0.00,,BKN080,0.00,VWS V14.01,2013-09-16 08:08:00,
2013-09-16 04:15:00,65.2,58.5,30.08,South,183,0.0,2.0,79,0.00,,BKN080,0.00,VWS V14.01,2013-09-16 08:15:00,
2013-09-16 04:20:00,65.2,58.1,30.07,South,175,0.0,3.0,78,0.00,,BKN080,0.00,VWS V14.01,2013-09-16 08:20:00,
2013-09-16 04:30:00,65.0,58.3,30.07,South,181,2.0,5.0,79,0.00,,BKN080,0.00,VWS V14.01,2013-09-16 08:30:00,
2013-09-16 04:35:00,64.9,58.5,30.07,SSW,198,3.0,5.0,80,0.00,,BKN080,0.00,VWS V14.01,2013-09-16 08:35:00,
2013-09-16 04:40:00,64.8,58.4,30.07,SSW,206,0.0,8.0,80,0.00,,BKN080,0.00,VWS V14.01,2013-09-16 08:40:00,
2013-09-16 04:45:00,64.8,58.4,30.07,SSW,200,0.0,6.0,80,0.00,,BKN080,0.00,VWS V14.01,2013-09-16 08:45:00,
2013-09-16 04:50:00,64.8,58.8,30.07,SSW,201,2.0,4.0,81,0.00,,BKN080,0.00,VWS V14.01,2013-09-16 08:50:00,
2013-09-16 04:55:00,64.8,58.8,30.07,SSW,192,1.0,3.0,81,0.00,,BKN080,0.00,VWS V14.01,2013-09-16 08:55:00,
2013-09-16 05:00:00,64.7,58.7,30.06,South,184,0.0,5.0,81,0.00,,BKN080,0.00,VWS V14.01,2013-09-16 09:00:00,
2013-09-16 05:08:00,64.7,58.7,30.06,South,174,0.0,3.0,81,0.00,,BKN080,0.00,VWS V14.01,2013-09-16 09:08:00,
2013-09-16 05:15:00,64.7,58.7,30.06,South,189,0.0,3.0,81,0.00,,BKN080,0.00,VWS V14.01,2013-09-16 09:15:00,
2013-09-16 05:20:00,64.7,58.7,30.06,South,176,0.0,5.0,81,0.00,,BKN080,0.00,VWS V14.01,2013-09-16 09:20:00,
2013-09-16 05:30:00,64.5,58.9,30.06,South,177,0.0,3.0,82,0.00,,BKN080,0.00,VWS V14.01,2013-09-16 09:30:00,
2013-09-16 05:35:00,64.4,58.8,30.06,SSW,206,3.0,5.0,82,0.00,,BKN080,0.00,VWS V14.01,2013-09-16 09:35:00,
2013-09-16 05:45:00,64.4,58.8,30.06,SSW,200,0.0,3.0,82,0.00,,BKN080,0.00,VWS V14.01,2013-09-16 09:45:00,
2013-09-16 05:50:00,64.5,59.2,30.06,SSW,200,1.0,2.0,83,0.00,,BKN080,0.00,VWS V14.01,2013-09-16 09:50:00,
2013-09-16 05:55:00,64.4,59.2,30.06,SSW,198,3.0,3.0,83,0.00,,BKN080,0.00,VWS V14.01,2013-09-16 09:55:00,
2013-09-16 06:00:00,64.3,59.0,30.06,South,190,3.0,5.0,83,0.00,,SCT080,0.00,VWS V14.01,2013-09-16 10:00:00,
2013-09-16 06:08:00,64.3,59.0,30.06,South,189,0.0,3.0,83,0.00,,SCT080,0.00,VWS V14.01,2013-09-16 10:08:00,
2013-09-16 06:15:00,64.5,59.2,30.06,South,187,0.0,3.0,83,0.00,,SCT080,0.00,VWS V14.01,2013-09-16 10:15:00,
2013-09-16 06:20:00,64.5,59.6,30.07,South,187,0.0,3.0,84,0.00,,SCT080,0.00,VWS V14.01,2013-09-16 10:20:00,
2013-09-16 06:27:00,64.5,59.6,30.07,South,187,0.0,2.0,84,0.00,,SCT080,0.00,VWS V14.01,2013-09-16 10:27:00,
2013-09-16 06:35:00,64.6,59.7,30.07,South,189,0.0,3.0,84,0.00,,SCT080,0.00,VWS V14.01,2013-09-16 10:35:00,
2013-09-16 06:40:00,64.6,59.7,30.07,South,189,0.0,2.0,84,0.00,,SCT080,0.00,VWS V14.01,2013-09-16 10:40:00,
2013-09-16 06:45:00,64.7,59.8,30.07,SE,146,0.0,4.0,84,0.00,,SCT080,0.00,VWS V14.01,2013-09-16 10:45:00,
2013-09-16 06:50:00,64.6,59.7,30.07,SSE,168,0.0,5.0,84,0.00,,SCT080,0.00,VWS V14.01,2013-09-16 10:50:00,
2013-09-16 06:55:00,64.6,59.7,30.07,South,169,1.0,1.0,84,0.00,,SCT080,0.00,VWS V14.01,2013-09-16 10:55:00,
2013-09-16 07:00:00,64.5,60.0,30.07,South,169,0.0,2.0,85,0.00,,BKN250,0.00,VWS V14.01,2013-09-16 11:00:00,
2013-09-16 07:08:00,64.5,60.0,30.07,South,178,0.0,3.0,85,0.00,,BKN250,0.00,VWS V14.01,2013-09-16 11:08:00,
2013-09-16 07:15:00,64.5,60.0,30.08,South,179,0.0,2.0,85,0.00,,BKN250,0.00,VWS V14.01,2013-09-16 11:15:00,
2013-09-16 07:25:00,64.6,60.0,30.08,South,179,1.0,2.0,85,0.00,,BKN250,0.00,VWS V14.01,2013-09-16 11:25:00,
2013-09-16 07:30:00,64.7,59.8,30.08,WSW,237,2.0,3.0,84,0.00,,BKN250,0.00,VWS V14.01,2013-09-16 11:30:00,
2013-09-16 07:35:00,64.8,59.5,30.08,WSW,244,1.0,4.0,83,0.00,,BKN250,0.00,VWS V14.01,2013-09-16 11:35:00,
2013-09-16 07:40:00,64.9,59.3,30.08,WSW,237,0.0,4.0,82,0.00,,BKN250,0.00,VWS V14.01,2013-09-16 11:40:00,
2013-09-16 07:45:00,64.9,59.6,30.08,SSW,201,3.0,3.0,83,0.00,,BKN250,0.00,VWS V14.01,2013-09-16 11:45:00,
2013-09-16 07:50:00,65.0,59.7,30.08,SW,235,0.0,3.0,83,0.00,,BKN250,0.00,VWS V14.01,2013-09-16 11:50:00,
2013-09-16 07:55:00,65.1,59.8,30.08,West,260,4.0,4.0,83,0.00,,BKN250,0.00,VWS V14.01,2013-09-16 11:55:00,
2013-09-16 08:00:00,65.2,59.6,30.08,West,274,2.0,6.0,82,0.00,,BKN250,0.00,VWS V14.01,2013-09-16 12:00:00,
2013-09-16 08:08:00,65.2,59.6,30.08,WSW,245,0.0,5.0,82,0.00,,BKN250,0.00,VWS V14.01,2013-09-16 12:08:00,
2013-09-16 08:15:00,65.2,59.2,30.11,WSW,252,2.0,15.0,81,0.00,,BKN250,0.00,VWS V14.01,2013-09-16 12:15:00,
2013-09-16 08:20:00,65.3,59.3,30.10,WNW,297,0.0,7.0,81,0.00,,BKN250,0.00,VWS V14.01,2013-09-16 12:20:00,
2013-09-16 08:25:00,65.3,58.9,30.10,NW,314,5.0,7.0,80,0.00,,BKN250,0.00,VWS V14.01,2013-09-16 12:25:00,
2013-09-16 08:35:00,65.8,59.4,30.11,NW,310,0.0,3.0,80,0.00,,BKN250,0.00,VWS V14.01,2013-09-16 12:35:00,
2013-09-16 08:40:00,66.2,59.4,30.11,West,268,0.0,4.0,79,0.00,,BKN250,0.00,VWS V14.01,2013-09-16 12:40:00,
2013-09-16 08:45:00,66.4,59.6,30.11,WNW,295,1.0,4.0,79,0.00,,BKN250,0.00,VWS V14.01,2013-09-16 12:45:00,
2013-09-16 08:50:00,66.6,59.4,30.11,NW,316,4.0,5.0,78,0.00,,BKN250,0.00,VWS V14.01,2013-09-16 12:50:00,
2013-09-16 08:55:00,66.6,59.1,30.11,NNW,331,0.0,10.0,77,0.00,,BKN250,0.00,VWS V14.01,2013-09-16 12:55:00,
2013-09-16 09:00:00,66.6,59.1,30.12,NW,313,1.0,7.0,77,0.00,,BKN250,0.00,VWS V14.01,2013-09-16 13:00:00,
2013-09-16 09:08:00,66.4,59.2,30.12,NW,314,3.0,13.0,78,0.00,,BKN250,0.00,VWS V14.01,2013-09-16 13:08:00,
2013-09-16 09:15:00,66.0,59.2,30.12,North,2,3.0,9.0,79,0.00,,BKN250,0.00,VWS V14.01,2013-09-16 13:15:00,
2013-09-16 09:20:00,65.8,59.0,30.12,NNE,19,2.0,9.0,79,0.00,,BKN250,0.00,VWS V14.01,2013-09-16 13:20:00,
2013-09-16 09:25:00,65.9,59.5,30.12,NE,42,4.0,7.0,80,0.00,,BKN250,0.00,VWS V14.01,2013-09-16 13:25:00,
2013-09-16 09:30:00,65.9,59.5,30.12,NE,44,0.0,6.0,80,0.00,,BKN250,0.00,VWS V14.01,2013-09-16 13:30:00,
2013-09-16 09:35:00,65.8,60.2,30.12,NNE,22,6.0,8.0,82,0.00,,BKN250,0.00,VWS V14.01,2013-09-16 13:35:00,
2013-09-16 09:40:00,65.5,59.5,30.13,NNE,27,3.0,7.0,81,0.00,,BKN250,0.00,VWS V14.01,2013-09-16 13:40:00,
2013-09-16 09:45:00,65.5,59.9,30.12,NE,45,3.0,6.0,82,0.00,,BKN250,0.00,VWS V14.01,2013-09-16 13:45:00,
2013-09-16 09:50:00,65.6,60.0,30.13,North,6,2.0,8.0,82,0.00,,BKN250,0.00,VWS V14.01,2013-09-16 13:50:00,
2013-09-16 09:55:00,65.6,60.3,30.13,NNE,23,4.0,10.0,83,0.00,,BKN250,0.00,VWS V14.01,2013-09-16 13:55:00,
2013-09-16 10:00:00,65.6,60.3,30.13,NE,50,5.0,8.0,83,0.00,,-RA,0.00,VWS V14.01,2013-09-16 14:00:00,
2013-09-16 10:08:00,65.5,60.2,30.13,NE,39,3.0,7.0,83,0.00,,-RA,0.00,VWS V14.01,2013-09-16 14:08:00,
2013-09-16 10:15:00,65.0,60.1,30.14,NNW,334,3.0,6.0,84,0.00,,-RA,0.00,VWS V14.01,2013-09-16 14:15:00,
2013-09-16 10:20:00,64.6,59.3,30.14,NE,45,3.0,7.0,83,0.00,,-RA,0.00,VWS V14.01,2013-09-16 14:20:00,
2013-09-16 10:25:00,64.4,59.5,30.14,NNW,337,3.0,7.0,84,0.00,,-RA,0.00,VWS V14.01,2013-09-16 14:25:00,
2013-09-16 10:30:00,64.3,59.8,30.15,WNW,295,3.0,7.0,85,0.00,,-RA,0.00,VWS V14.01,2013-09-16 14:30:00,
2013-09-16 10:35:00,63.9,60.0,30.15,NNW,327,4.0,11.0,87,0.00,,-RA,0.00,VWS V14.01,2013-09-16 14:35:00,
2013-09-16 10:40:00,63.4,59.6,30.16,WNW,287,3.0,12.0,87,0.00,,-RA,0.00,VWS V14.01,2013-09-16 14:40:00,
2013-09-16 10:45:00,63.3,59.5,30.15,NNW,335,3.0,8.0,87,0.00,,-RA,0.00,VWS V14.01,2013-09-16 14:45:00,
2013-09-16 10:55:00,62.7,59.5,30.14,NNW,336,4.0,4.0,89,0.00,,-RA,0.00,VWS V14.01,2013-09-16 14:55:00,
2013-09-16 11:00:00,62.3,59.5,30.14,North,2,0.0,7.0,90,0.00,,-RA,0.00,VWS V14.01,2013-09-16 15:00:00,
2013-09-16 11:08:00,62.4,59.9,30.15,North,349,0.0,3.0,92,0.00,,-RA,0.00,VWS V14.01,2013-09-16 15:08:00,
2013-09-16 11:15:00,62.5,60.0,30.15,NW,317,1.0,3.0,92,0.00,,-RA,0.00,VWS V14.01,2013-09-16 15:15:00,
2013-09-16 11:20:00,62.5,60.3,30.15,NW,317,1.0,2.0,93,0.00,,-RA,0.00,VWS V14.01,2013-09-16 15:20:00,
2013-09-16 11:27:00,62.6,60.1,30.15,WNW,285,1.0,3.0,92,0.00,,-RA,0.00,VWS V14.01,2013-09-16 15:27:00,
2013-09-16 11:35:00,62.9,60.4,30.15,NW,306,2.0,5.0,92,0.00,,-RA,0.00,VWS V14.01,2013-09-16 15:35:00,
2013-09-16 11:40:00,63.0,60.2,30.15,NW,316,4.0,4.0,90,0.00,,-RA,0.00,VWS V14.01,2013-09-16 15:40:00,
2013-09-16 11:45:00,62.9,59.4,30.15,NW,317,1.0,5.0,88,0.00,,-RA,0.00,VWS V14.01,2013-09-16 15:45:00,
2013-09-16 11:50:00,62.8,59.3,30.14,NW,324,1.0,4.0,88,0.00,,-RA,0.00,VWS V14.01,2013-09-16 15:50:00,
2013-09-16 12:00:00,62.7,59.5,30.15,NW,314,2.0,4.0,89,0.00,,OVC130,0.00,VWS V14.01,2013-09-16 16:00:00,
2013-09-16 12:08:00,62.8,59.3,30.14,NW,314,2.0,4.0,88,0.00,,OVC130,0.00,VWS V14.01,2013-09-16 16:08:00,
2013-09-16 12:15:00,63.2,60.0,30.14,NW,306,1.0,4.0,89,0.00,,OVC130,0.00,VWS V14.01,2013-09-16 16:15:00,
2013-09-16 12:20:00,63.4,60.2,30.14,NW,307,6.0,6.0,89,0.00,,OVC130,0.00,VWS V14.01,2013-09-16 16:20:00,
2013-09-16 12:25:00,63.3,59.8,30.14,WNW,301,0.0,7.0,88,0.00,,OVC130,0.00,VWS V14.01,2013-09-16 16:25:00,
2013-09-16 12:30:00,63.4,59.9,30.15,NW,310,6.0,7.0,88,0.00,,OVC130,0.00,VWS V14.01,2013-09-16 16:30:00,
2013-09-16 12:35:00,63.5,60.0,30.14,NW,314,0.0,7.0,88,0.00,,OVC130,0.00,VWS V14.01,2013-09-16 16:35:00,
2013-09-16 12:40:00,63.7,60.2,30.15,West,281,7.0,7.0,88,0.00,,OVC130,0.00,VWS V14.01,2013-09-16 16:40:00,
2013-09-16 12:45:00,64.0,60.2,30.14,WNW,296,1.0,7.0,87,0.00,,OVC130,0.00,VWS V14.01,2013-09-16 16:45:00,
2013-09-16 12:50:00,64.4,60.9,30.14,West,273,4.0,7.0,88,0.00,,OVC130,0.00,VWS V14.01,2013-09-16 16:50:00,
2013-09-16 12:55:00,64.7,60.8,30.14,NW,307,3.0,7.0,87,0.00,,OVC130,0.00,VWS V14.01,2013-09-16 16:55:00,
2013-09-16 13:00:00,64.9,61.0,30.14,West,273,4.0,7.0,87,0.00,,OVC130,0.00,VWS V14.01,2013-09-16 17:00:00,
2013-09-16 13:08:00,65.1,61.2,30.14,WNW,293,2.0,9.0,87,0.00,,OVC130,0.00,VWS V14.01,2013-09-16 17:08:00,
2013-09-16 13:15:00,65.5,60.9,30.14,NNE,33,4.0,8.0,85,0.00,,OVC130,0.00,VWS V14.01,2013-09-16 17:15:00,
2013-09-16 13:20:00,65.4,60.8,30.14,NNW,339,3.0,9.0,85,0.00,,OVC130,0.00,VWS V14.01,2013-09-16 17:20:00,
2013-09-16 13:25:00,65.7,60.4,30.14,WNW,298,5.0,14.0,83,0.00,,OVC130,0.00,VWS V14.01,2013-09-16 17:25:00,
2013-09-16 13:35:00,66.9,60.1,30.14,NW,315,7.0,11.0,79,0.00,,OVC130,0.00,VWS V14.01,2013-09-16 17:35:00,
2013-09-16 13:40:00,67.0,59.4,30.14,NNE,22,4.0,7.0,77,0.00,,OVC130,0.00,VWS V14.01,2013-09-16 17:40:00,
2013-09-16 13:45:00,67.2,58.8,30.14,WNW,303,6.0,11.0,75,0.00,,OVC130,0.00,VWS V14.01,2013-09-16 17:45:00,
2013-09-16 13:50:00,67.2,59.2,30.14,WNW,291,4.0,9.0,76,0.00,,OVC130,0.00,VWS V14.01,2013-09-16 17:50:00,
2013-09-16 13:55:00,67.1,58.8,30.14,WNW,282,5.0,7.0,75,0.00,,OVC130,0.00,VWS V14.01,2013-09-16 17:55:00,
2013-09-16 14:00:00,67.4,59.0,30.14,NNW,343,4.0,10.0,75,0.00,,OVC080,0.00,VWS V14.01,2013-09-16 18:00:00,
2013-09-16 14:08:00,67.3,59.0,30.14,NNW,329,3.0,8.0,75,0.00,,OVC080,0.00,VWS V14.01,2013-09-16 18:08:00,
2013-09-16 14:15:00,67.7,58.9,30.14,WNW,293,1.0,8.0,73,0.00,,OVC080,0.00,VWS V14.01,2013-09-16 18:15:00,
2013-09-16 14:20:00,67.6,59.2,30.14,NNW,337,3.0,7.0,75,0.00,,OVC080,0.00,VWS V14.01,2013-09-16 18:20:00,
2013-09-16 14:25:00,67.9,58.7,30.14,WNW,300,3.0,11.0,72,0.00,,OVC080,0.00,VWS V14.01,2013-09-16 18:25:00,
2013-09-16 14:30:00,68.2,59.0,30.14,NW,305,2.0,8.0,72,0.00,,OVC080,0.00,VWS V14.01,2013-09-16 18:30:00,
2013-09-16 14:35:00,68.4,58.8,30.14,NNW,337,4.0,10.0,71,0.00,,OVC080,0.00,VWS V14.01,2013-09-16 18:35:00,
2013-09-16 14:40:00,68.2,58.6,30.14,WNW,303,7.0,8.0,71,0.00,,OVC080,0.00,VWS V14.01,2013-09-16 18:40:00,
2013-09-16 14:45:00,68.5,58.9,30.13,WNW,303,8.0,8.0,71,0.00,,OVC080,0.00,VWS V14.01,2013-09-16 18:45:00,
2013-09-16 14:50:00,68.9,58.8,30.13,NNE,26,3.0,8.0,70,0.00,,OVC080,0.00,VWS V14.01,2013-09-16 18:50:00,
2013-09-16 15:00:00,69.8,58.0,30.13,NE,37,5.0,8.0,66,0.00,,OVC085,0.00,VWS V14.01,2013-09-16 19:00:00,
2013-09-16 15:08:00,70.3,57.5,30.13,WNW,298,5.0,6.0,64,0.00,,OVC085,0.00,VWS V14.01,2013-09-16 19:08:00,
2013-09-16 15:15:00,70.0,57.3,30.13,NNE,24,1.0,7.0,64,0.00,,OVC085,0.00,VWS V14.01,2013-09-16 19:15:00,
2013-09-16 15:20:00,70.6,57.4,30.13,NNW,333,5.0,9.0,63,0.00,,OVC085,0.00,VWS V14.01,2013-09-16 19:20:00,
2013-09-16 15:27:00,71.2,57.9,30.12,NW,320,3.0,7.0,63,0.00,,OVC085,0.00,VWS V14.01,2013-09-16 19:27:00,
2013-09-16 15:35:00,71.9,55.1,30.12,NNE,27,2.0,11.0,55,0.00,,OVC085,0.00,VWS V14.01,2013-09-16 19:35:00,
2013-09-16 15:40:00,71.9,55.1,30.12,NW,314,5.0,10.0,55,0.00,,OVC085,0.00,VWS V14.01,2013-09-16 19:40:00,
2013-09-16 15:50:00,72.6,55.8,30.12,NW,312,12.0,16.0,55,0.00,,OVC085,0.00,VWS V14.01,2013-09-16 19:50:00,
2013-09-16 15:55:00,72.2,54.9,30.12,North,352,5.0,13.0,54,0.00,,OVC085,0.00,VWS V14.01,2013-09-16 19:55:00,
2013-09-16 16:00:00,71.6,55.3,30.13,WNW,302,4.0,14.0,57,0.00,,BKN250,0.00,VWS V14.01,2013-09-16 20:00:00,
2013-09-16 16:08:00,71.4,55.2,30.13,NW,310,9.0,11.0,57,0.00,,BKN250,0.00,VWS V14.01,2013-09-16 20:08:00,
2013-09-16 16:15:00,71.3,55.1,30.13,SW,230,3.0,15.0,57,0.00,,BKN250,0.00,VWS V14.01,2013-09-16 20:15:00,
2013-09-16 16:20:00,71.4,55.2,30.12,North,7,4.0,10.0,57,0.00,,BKN250,0.00,VWS V14.01,2013-09-16 20:20:00,
2013-09-16 16:25:00,71.8,55.5,30.12,North,4,1.0,8.0,57,0.00,,BKN250,0.00,VWS V14.01,2013-09-16 20:25:00,
2013-09-16 16:30:00,72.0,55.2,30.12,North,352,1.0,8.0,55,0.00,,BKN250,0.00,VWS V14.01,2013-09-16 20:30:00,
2013-09-16 16:35:00,72.2,54.9,30.13,NNW,331,1.0,6.0,54,0.00,,BKN250,0.00,VWS V14.01,2013-09-16 20:35:00,
2013-09-16 16:40:00,72.6,55.2,30.12,NNE,21,4.0,7.0,54,0.00,,BKN250,0.00,VWS V14.01,2013-09-16 20:40:00,
2013-09-16 16:45:00,72.5,54.6,30.12,NW,320,6.0,10.0,53,0.00,,BKN250,0.00,VWS V14.01,2013-09-16 20:45:00,
2013-09-16 16:50:00,71.9,54.6,30.13,WNW,297,7.0,8.0,54,0.00,,BKN250,0.00,VWS V14.01,2013-09-16 20:50:00,
2013-09-16 17:00:00,71.3,55.1,30.13,North,356,3.0,8.0,57,0.00,,BKN250,0.00,VWS V14.01,2013-09-16 21:00:00,
2013-09-16 17:08:00,71.3,55.1,30.13,North,354,0.0,10.0,57,0.00,,BKN250,0.00,VWS V14.01,2013-09-16 21:08:00,
2013-09-16 17:15:00,70.7,55.0,30.13,NW,305,6.0,6.0,58,0.00,,BKN250,0.00,VWS V14.01,2013-09-16 21:15:00,
2013-09-16 17:20:00,70.8,55.1,30.14,North,4,3.0,7.0,58,0.00,,BKN250,0.00,VWS V14.01,2013-09-16 21:20:00,
2013-09-16 17:30:00,70.8,55.6,30.13,NNW,331,5.0,7.0,59,0.00,,BKN250,0.00,VWS V14.01,2013-09-16 21:30:00,
2013-09-16 17:35:00,70.8,56.1,30.13,NE,48,3.0,8.0,60,0.00,,BKN250,0.00,VWS V14.01,2013-09-16 21:35:00,
2013-09-16 17:40:00,70.8,56.1,30.13,NE,48,1.0,6.0,60,0.00,,BKN250,0.00,VWS V14.01,2013-09-16 21:40:00,
2013-09-16 17:45:00,71.0,55.3,30.14,North,6,3.0,7.0,58,0.00,,BKN250,0.00,VWS V14.01,2013-09-16 21:45:00,
2013-09-16 17:50:00,71.2,55.5,30.14,WNW,293,7.0,7.0,58,0.00,,BKN250,0.00,VWS V14.01,2013-09-16 21:50:00,
2013-09-16 17:55:00,71.3,55.1,30.14,NW,314,2.0,9.0,57,0.00,,BKN250,0.00,VWS V14.01,2013-09-16 21:55:00,
2013-09-16 18:00:00,71.4,55.2,30.14,NNW,333,2.0,6.0,57,0.00,,BKN055,0.00,VWS V14.01,2013-09-16 22:00:00,
2013-09-16 18:08:00,71.5,55.3,30.14,WSW,255,4.0,7.0,57,0.00,,BKN055,0.00,VWS V14.01,2013-09-16 22:08:00,
2013-09-16 18:15:00,71.2,55.0,30.14,West,281,5.0,9.0,57,0.00,,BKN055,0.00,VWS V14.01,2013-09-16 22:15:00,
2013-09-16 18:20:00,71.1,54.9,30.14,WNW,300,8.0,11.0,57,0.00,,BKN055,0.00,VWS V14.01,2013-09-16 22:20:00,
2013-09-16 18:25:00,71.1,54.4,30.14,West,274,3.0,11.0,55,0.00,,BKN055,0.00,VWS V14.01,2013-09-16 22:25:00,
2013-09-16 18:30:00,70.9,53.7,30.15,WNW,299,10.0,11.0,54,0.00,,BKN055,0.00,VWS V14.01,2013-09-16 22:30:00,
2013-09-16 18:35:00,70.9,54.7,30.15,WNW,290,4.0,10.0,57,0.00,,BKN055,0.00,VWS V14.01,2013-09-16 22:35:00,
2013-09-16 18:40:00,70.9,54.7,30.15,WNW,289,3.0,9.0,57,0.00,,BKN055,0.00,VWS V14.01,2013-09-16 22:40:00,
2013-09-16 18:45:00,70.6,54.9,30.15,NW,308,6.0,7.0,58,0.00,,BKN055,0.00,VWS V14.01,2013-09-16 22:45:00,
2013-09-16 18:50:00,70.6,54.9,30.15,WNW,282,0.0,7.0,58,0.00,,BKN055,0.00,VWS V14.01,2013-09-16 22:50:00,
2013-09-16 19:00:00,70.3,54.7,30.15,WSW,258,0.0,5.0,58,0.00,,BKN070,0.00,VWS V14.01,2013-09-16 23:00:00,
2013-09-16 19:08:00,70.1,55.0,30.15,WNW,294,0.0,6.0,59,0.00,,BKN070,0.00,VWS V14.01,2013-09-16 23:08:00,
2013-09-16 19:15:00,69.9,55.3,30.15,WNW,289,4.0,7.0,60,0.00,,BKN070,0.00,VWS V14.01,2013-09-16 23:15:00,
2013-09-16 19:20:00,69.7,55.1,30.16,WNW,287,0.0,7.0,60,0.00,,BKN070,0.00,VWS V14.01,2013-09-16 23:20:00,
2013-09-16 19:25:00,69.7,55.1,30.16,West,268,2.0,5.0,60,0.00,,BKN070,0.00,VWS V14.01,2013-09-16 23:25:00,
2013-09-16 19:30:00,69.3,55.2,30.16,West,279,3.0,4.0,61,0.00,,BKN070,0.00,VWS V14.01,2013-09-16 23:30:00,
2013-09-16 19:35:00,69.2,55.6,30.16,West,273,2.0,3.0,62,0.00,,BKN070,0.00,VWS V14.01,2013-09-16 23:35:00,
2013-09-16 19:40:00,69.0,55.4,30.16,West,275,2.0,5.0,62,0.00,,BKN070,0.00,VWS V14.01,2013-09-16 23:40:00,
2013-09-16 19:45:00,69.0,55.4,30.16,West,264,0.0,4.0,62,0.00,,BKN070,0.00,VWS V14.01,2013-09-16 23:45:00,
2013-09-16 19:50:00,68.9,55.8,30.17,West,268,0.0,4.0,63,0.00,,BKN070,0.00,VWS V14.01,2013-09-16 23:50:00,
2013-09-16 19:55:00,68.8,55.7,30.17,West,266,2.0,3.0,63,0.00,,BKN070,0.00,VWS V14.01,2013-09-16 23:55:00,
2013-09-16 20:00:00,68.6,55.5,30.17,West,266,1.0,4.0,63,0.00,,SCT070,0.00,VWS V14.01,2013-09-17 00:00:00,
2013-09-16 20:08:00,68.5,55.8,30.17,West,266,2.0,3.0,64,0.00,,SCT070,0.00,VWS V14.01,2013-09-17 00:08:00,
2013-09-16 20:15:00,68.0,55.8,30.18,West,267,0.0,3.0,65,0.00,,SCT070,0.00,VWS V14.01,2013-09-17 00:15:00,
2013-09-16 20:20:00,67.8,56.1,30.18,West,267,0.0,2.0,66,0.00,,SCT070,0.00,VWS V14.01,2013-09-17 00:20:00,
2013-09-16 20:27:00,67.6,55.9,30.18,West,262,0.0,1.0,66,0.00,,SCT070,0.00,VWS V14.01,2013-09-17 00:27:00,
2013-09-16 20:35:00,67.3,56.0,30.19,West,262,3.0,3.0,67,0.00,,SCT070,0.00,VWS V14.01,2013-09-17 00:35:00,
2013-09-16 20:40:00,67.5,56.2,30.19,West,262,1.0,4.0,67,0.00,,SCT070,0.00,VWS V14.01,2013-09-17 00:40:00,
2013-09-16 20:45:00,67.5,56.2,30.19,West,264,2.0,4.0,67,0.00,,SCT070,0.00,VWS V14.01,2013-09-17 00:45:00,
2013-09-16 20:50:00,67.4,56.1,30.19,West,264,0.0,4.0,67,0.00,,SCT070,0.00,VWS V14.01,2013-09-17 00:50:00,
2013-09-16 20:55:00,67.4,56.1,30.19,West,264,1.0,3.0,67,0.00,,SCT070,0.00,VWS V14.01,2013-09-17 00:55:00,
2013-09-16 21:08:00,67.3,56.0,30.20,WSW,255,1.0,2.0,67,0.00,,SCT070,0.00,VWS V14.01,2013-09-17 01:08:00,
2013-09-16 21:15:00,67.0,55.8,30.20,WSW,258,3.0,4.0,67,0.00,,SCT070,0.00,VWS V14.01,2013-09-17 01:15:00,
2013-09-16 21:20:00,66.8,56.0,30.20,WSW,258,2.0,3.0,68,0.00,,SCT070,0.00,VWS V14.01,2013-09-17 01:20:00,
2013-09-16 21:25:00,66.8,56.0,30.20,WSW,258,0.0,3.0,68,0.00,,SCT070,0.00,VWS V14.01,2013-09-17 01:25:00,
2013-09-16 21:30:00,66.7,55.9,30.20,WSW,258,2.0,3.0,68,0.00,,SCT070,0.00,VWS V14.01,2013-09-17 01:30:00,
2013-09-16 21:35:00,66.7,55.9,30.21,West,276,2.0,5.0,68,0.00,,SCT070,0.00,VWS V14.01,2013-09-17 01:35:00,
2013-09-16 21:40:00,66.8,55.6,30.21,West,277,0.0,4.0,67,0.00,,SCT070,0.00,VWS V14.01,2013-09-17 01:40:00,
2013-09-16 21:45:00,66.8,55.6,30.21,West,277,0.0,3.0,67,0.00,,SCT070,0.00,VWS V14.01,2013-09-17 01:45:00,
2013-09-16 21:55:00,66.7,55.9,30.21,West,279,1.0,4.0,68,0.00,,SCT070,0.00,VWS V14.01,2013-09-17 01:55:00,
2013-09-16 22:00:00,66.5,55.7,30.21,West,281,4.0,5.0,68,0.00,,BKN060,0.00,VWS V14.01,2013-09-17 02:00:00,
2013-09-16 22:08:00,66.5,55.7,30.21,West,277,0.0,4.0,68,0.00,,BKN060,0.00,VWS V14.01,2013-09-17 02:08:00,
2013-09-16 22:15:00,66.3,55.5,30.22,West,264,0.0,3.0,68,0.00,,BKN060,0.00,VWS V14.01,2013-09-17 02:15:00,
2013-09-16 22:20:00,66.1,55.8,30.22,West,266,2.0,4.0,69,0.00,,BKN060,0.00,VWS V14.01,2013-09-17 02:20:00,
2013-09-16 22:25:00,66.0,55.7,30.22,West,266,2.0,4.0,69,0.00,,BKN060,0.00,VWS V14.01,2013-09-17 02:25:00,
2013-09-16 22:30:00,65.9,55.6,30.22,West,266,0.0,3.0,69,0.00,,BKN060,0.00,VWS V14.01,2013-09-17 02:30:00,
2013-09-16 22:35:00,65.7,55.8,30.22,West,266,0.0,2.0,70,0.00,,BKN060,0.00,VWS V14.01,2013-09-17 02:35:00,
2013-09-16 22:40:00,65.6,55.7,30.22,West,266,1.0,3.0,70,0.00,,BKN060,0.00,VWS V14.01,2013-09-17 02:40:00,
2013-09-16 22:45:00,65.5,55.6,30.23,West,266,0.0,3.0,70,0.00,,BKN060,0.00,VWS V14.01,2013-09-17 02:45:00,
2013-09-16 22:50:00,65.3,55.8,30.23,West,266,1.0,3.0,71,0.00,,BKN060,0.00,VWS V14.01,2013-09-17 02:50:00,
2013-09-16 23:00:00,65.1,56.0,30.23,West,266,0.0,2.0,72,0.00,,BKN060,0.00,VWS V14.01,2013-09-17 03:00:00,
2013-09-16 23:08:00,64.9,55.8,30.23,West,266,0.0,1.0,72,0.00,,BKN060,0.00,VWS V14.01,2013-09-17 03:08:00,
2013-09-16 23:15:00,64.6,56.0,30.23,West,266,0.0,2.0,73,0.00,,BKN060,0.00,VWS V14.01,2013-09-17 03:15:00,
2013-09-16 23:20:00,64.3,56.0,30.24,West,266,0.0,2.0,75,0.00,,BKN060,0.00,VWS V14.01,2013-09-17 03:20:00,
2013-09-16 23:25:00,64.3,56.0,30.23,West,266,0.0,2.0,75,0.00,,BKN060,0.00,VWS V14.01,2013-09-17 03:25:00,
2013-09-16 23:35:00,64.1,56.2,30.24,West,266,0.0,2.0,76,0.00,,BKN060,0.00,VWS V14.01,2013-09-17 03:35:00,
2013-09-16 23:40:00,64.1,56.2,30.24,West,266,1.0,3.0,76,0.00,,BKN060,0.00,VWS V14.01,2013-09-17 03:40:00,
2013-09-16 23:45:00,64.0,56.5,30.24,West,266,0.0,3.0,77,0.00,,BKN060,0.00,VWS V14.01,2013-09-17 03:45:00,
2013-09-16 23:50:00,64.1,56.6,30.24,West,266,0.0,3.0,77,0.00,,BKN060,0.00,VWS V14.01,2013-09-17 03:50:00,
2013-09-16 23:55:00,64.2,57.1,30.24,West,266,0.0,3.0,78,0.00,,BKN060,0.00,VWS V14.01,2013-09-17 03:55:00,